When you browse on this site, cookies collect data to enhance your experience and personalize the content and advertising you see.
Visit our Privacy Policy to learn more. By continuing to use the site, you agree to this use of cookies and data.
EN

Hourly Weather Asuan

Today, 12 August, Wednesday

Time Temperature Precipitation Wind Pressure Humidity
00:00 +37°C° 0 mm 5 mps 739 mmHg 18%
01:00 +36°C° 0 mm 5 mps 739 mmHg 18%
02:00 +36°C° 0 mm 4 mps 738 mmHg 20%
03:00 +35°C° 0 mm 4 mps 738 mmHg 21%
04:00 +34°C° 0 mm 4 mps 738 mmHg 22%
05:00 +34°C° 0 mm 4 mps 739 mmHg 23%
06:00 +35°C° 0 mm 4 mps 739 mmHg 22%
07:00 +36°C° 0 mm 4 mps 739 mmHg 22%
08:00 +37°C° 0 mm 4 mps 740 mmHg 22%
09:00 +38°C° 0 mm 4 mps 739 mmHg 19%
10:00 +41°C° 0 mm 4 mps 739 mmHg 17%
11:00 +42°C° 0 mm 4 mps 739 mmHg 15%
12:00 +43°C° 0 mm 5 mps 739 mmHg 13%
13:00 +45°C° 0 mm 5 mps 738 mmHg 12%
14:00 +46°C° 0 mm 6 mps 738 mmHg 10%
15:00 +46°C° 0 mm 6 mps 737 mmHg 10%
16:00 +45°C° 0 mm 7 mps 737 mmHg 10%
17:00 +45°C° 0 mm 8 mps 737 mmHg 10%
18:00 +43°C° 0 mm 7 mps 737 mmHg 12%
19:00 +41°C° 0 mm 6 mps 737 mmHg 13%
20:00 +39°C° 0 mm 5 mps 738 mmHg 15%
21:00 +37°C° 0 mm 5 mps 738 mmHg 17%
22:00 +37°C° 0 mm 5 mps 738 mmHg 19%
23:00 +36°C° 0 mm 5 mps 738 mmHg 20%

Tomorrow, 13 August, Thursday

Time Temperature Precipitation Wind Pressure Humidity
00:00 +35°C° 0 mm 5 mps 738 mmHg 21%
01:00 +35°C° 0 mm 5 mps 738 mmHg 22%
02:00 +34°C° 0 mm 5 mps 738 mmHg 23%
03:00 +34°C° 0 mm 4 mps 738 mmHg 23%
04:00 +33°C° 0 mm 4 mps 738 mmHg 24%
05:00 +32°C° 0 mm 4 mps 738 mmHg 24%
06:00 +34°C° 0 mm 4 mps 738 mmHg 23%
07:00 +35°C° 0 mm 5 mps 738 mmHg 21%
08:00 +37°C° 0 mm 5 mps 739 mmHg 19%
09:00 +39°C° 0 mm 5 mps 739 mmHg 17%
10:00 +40°C° 0 mm 4 mps 738 mmHg 15%
11:00 +42°C° 0 mm 4 mps 738 mmHg 14%
12:00 +43°C° 0 mm 4 mps 738 mmHg 13%
13:00 +43°C° 0 mm 4 mps 737 mmHg 12%
14:00 +44°C° 0 mm 4 mps 736 mmHg 11%
15:00 +45°C° 0 mm 5 mps 736 mmHg 11%
16:00 +45°C° 0 mm 5 mps 736 mmHg 11%
17:00 +45°C° 0 mm 5 mps 735 mmHg 11%
18:00 +42°C° 0 mm 5 mps 736 mmHg 12%
19:00 +41°C° 0 mm 5 mps 736 mmHg 14%
20:00 +39°C° 0 mm 5 mps 737 mmHg 15%
21:00 +37°C° 0 mm 5 mps 737 mmHg 16%
22:00 +37°C° 0 mm 5 mps 737 mmHg 17%
23:00 +36°C° 0 mm 5 mps 737 mmHg 18%

Day after tomorrow, 14 August, Friday

Time Temperature Precipitation Wind Pressure Humidity
00:00 +35°C° 0 mm 4 mps 737 mmHg 18%
01:00 +34°C° 0 mm 4 mps 737 mmHg 19%
02:00 +34°C° 0 mm 4 mps 737 mmHg 20%
03:00 +33°C° 0 mm 3 mps 737 mmHg 22%
04:00 +31°C° 0 mm 3 mps 736 mmHg 23%
05:00 +31°C° 0 mm 3 mps 736 mmHg 25%
06:00 +33°C° 0 mm 3 mps 737 mmHg 23%
07:00 +35°C° 0 mm 4 mps 737 mmHg 20%
08:00 +36°C° 0 mm 4 mps 738 mmHg 18%
09:00 +38°C° 0 mm 4 mps 738 mmHg 17%
10:00 +39°C° 0 mm 3 mps 737 mmHg 15%
11:00 +42°C° 0 mm 3 mps 737 mmHg 13%
12:00 +43°C° 0 mm 3 mps 737 mmHg 12%
13:00 +43°C° 0 mm 4 mps 736 mmHg 11%
14:00 +45°C° 0 mm 5 mps 735 mmHg 10%
15:00 +45°C° 0 mm 5 mps 735 mmHg 10%
16:00 +45°C° 0 mm 6 mps 735 mmHg 10%
17:00 +44°C° 0 mm 6 mps 734 mmHg 10%
18:00 +42°C° 0 mm 5 mps 735 mmHg 12%
19:00 +40°C° 0 mm 5 mps 735 mmHg 13%
20:00 +38°C° 0 mm 4 mps 735 mmHg 14%
21:00 +37°C° 0 mm 5 mps 735 mmHg 16%
22:00 +37°C° 0 mm 5 mps 736 mmHg 18%
23:00 +36°C° 0 mm 6 mps 736 mmHg 20%

15 August, Saturday

Time Temperature Precipitation Wind Pressure Humidity
00:00 +35°C° 0 mm 6 mps 735 mmHg 20%
01:00 +35°C° 0 mm 5 mps 735 mmHg 20%
02:00 +34°C° 0 mm 5 mps 735 mmHg 21%
03:00 +34°C° 0 mm 5 mps 735 mmHg 21%
04:00 +34°C° 0 mm 4 mps 735 mmHg 21%
05:00 +33°C° 0 mm 4 mps 735 mmHg 21%
06:00 +34°C° 0 mm 4 mps 736 mmHg 20%
07:00 +36°C° 0 mm 5 mps 736 mmHg 19%
08:00 +37°C° 0 mm 5 mps 736 mmHg 18%
09:00 +38°C° 0 mm 4 mps 736 mmHg 17%
10:00 +40°C° 0 mm 3 mps 736 mmHg 16%
11:00 +41°C° 0 mm 2 mps 736 mmHg 14%
12:00 +42°C° 0 mm 2 mps 735 mmHg 13%
13:00 +43°C° 0 mm 2 mps 735 mmHg 12%
14:00 +45°C° 0 mm 2 mps 734 mmHg 11%
15:00 +45°C° 0 mm 2 mps 734 mmHg 11%
16:00 +45°C° 0 mm 2 mps 733 mmHg 11%
17:00 +45°C° 0 mm 3 mps 733 mmHg 11%
18:00 +42°C° 0 mm 2 mps 733 mmHg 13%
19:00 +40°C° 0 mm 2 mps 734 mmHg 14%
20:00 +39°C° 0 mm 2 mps 734 mmHg 15%
21:00 +38°C° 0 mm 2 mps 734 mmHg 16%
22:00 +38°C° 0 mm 3 mps 735 mmHg 16%
23:00 +37°C° 0 mm 3 mps 735 mmHg 17%

16 August, Sunday

Time Temperature Precipitation Wind Pressure Humidity
00:00 +36°C° 0 mm 4 mps 734 mmHg 18%
01:00 +35°C° 0 mm 4 mps 734 mmHg 20%
02:00 +35°C° 0 mm 4 mps 734 mmHg 22%
03:00 +34°C° 0 mm 4 mps 734 mmHg 22%
04:00 +34°C° 0 mm 4 mps 734 mmHg 22%
05:00 +33°C° 0 mm 4 mps 734 mmHg 22%
06:00 +35°C° 0 mm 4 mps 735 mmHg 21%
07:00 +36°C° 0 mm 5 mps 735 mmHg 19%
08:00 +37°C° 0 mm 5 mps 735 mmHg 18%
09:00 +40°C° 0 mm 4 mps 735 mmHg 17%
10:00 +42°C° 0 mm 4 mps 735 mmHg 16%
11:00 +44°C° 0 mm 4 mps 735 mmHg 15%
12:00 +45°C° 0 mm 3 mps 735 mmHg 14%
13:00 +45°C° 0 mm 2 mps 734 mmHg 12%
14:00 +46°C° 0 mm 2 mps 734 mmHg 11%
15:00 +46°C° 0 mm 2 mps 734 mmHg 11%
16:00 +46°C° 0 mm 2 mps 733 mmHg 10%
17:00 +46°C° 0 mm 2 mps 733 mmHg 10%
18:00 +43°C° 0 mm 2 mps 734 mmHg 11%
19:00 +42°C° 0 mm 2 mps 734 mmHg 12%
20:00 +40°C° 0 mm 2 mps 735 mmHg 13%
21:00 +39°C° 0 mm 3 mps 735 mmHg 14%
22:00 +40°C° 0 mm 4 mps 735 mmHg 15%
23:00 +39°C° 0 mm 6 mps 735 mmHg 16%

17 August, Monday

Time Temperature Precipitation Wind Pressure Humidity
00:00 +39°C° 0 mm 7 mps 735 mmHg 17%
01:00 +38°C° 0 mm 7 mps 735 mmHg 17%
02:00 +38°C° 0 mm 8 mps 735 mmHg 18%
03:00 +36°C° 0 mm 7 mps 735 mmHg 19%
04:00 +35°C° 0 mm 6 mps 735 mmHg 20%
05:00 +35°C° 0 mm 5 mps 735 mmHg 21%
06:00 +36°C° 0 mm 5 mps 736 mmHg 20%
07:00 +37°C° 0 mm 5 mps 736 mmHg 18%
08:00 +40°C° 0 mm 5 mps 736 mmHg 17%
09:00 +41°C° 0 mm 4 mps 736 mmHg 16%
10:00 +43°C° 0 mm 4 mps 736 mmHg 14%
11:00 +45°C° 0 mm 4 mps 736 mmHg 13%
12:00 +45°C° 0 mm 3 mps 736 mmHg 12%
13:00 +45°C° 0 mm 1 mps 735 mmHg 11%
14:00 +43°C° 0 mm 0 mps 735 mmHg 11%
15:00 +46°C° 0 mm 1 mps 735 mmHg 10%
16:00 +46°C° 0 mm 1 mps 734 mmHg 10%
17:00 +46°C° 0 mm 1 mps 734 mmHg 10%
18:00 +45°C° 0 mm 2 mps 735 mmHg 11%
19:00 +43°C° 0 mm 3 mps 735 mmHg 12%
20:00 +42°C° 0 mm 3 mps 736 mmHg 14%
21:00 +41°C° 0 mm 4 mps 736 mmHg 15%
22:00 +40°C° 0 mm 5 mps 736 mmHg 16%
23:00 +39°C° 0 mm 6 mps 736 mmHg 17%
Show more